Time,TemperatureF,DewpointF,PressureIn,WindDirection,WindDirectionDegrees,WindSpeedMPH,WindSpeedGustMPH,Humidity,HourlyPrecipIn,Conditions,Clouds,dailyrainin,SolarRadiationWatts/m^2,SoftwareType,DateUTC
2013-01-02 08:12:00,41.8,15.0,29.62,WNW,303,10.0,11.7,33,-99.99,,,0.00,70.7,rob ver 1A,2013-01-02 15:12:00,
2013-01-02 08:16:00,41.8,15.1,29.62,WNW,302,9.7,10.7,33,-99.99,,,0.00,80.4,rob ver 1B,2013-01-02 15:16:00,
2013-01-02 08:17:00,41.8,15.1,29.62,WNW,303,9.4,10.8,33,-99.99,,,0.00,82.9,rob ver 1A,2013-01-02 15:17:00,
2013-01-02 08:22:00,41.8,15.2,29.62,WNW,301,8.5,10.2,33,-99.99,,,0.00,95.4,rob ver 1A,2013-01-02 15:22:00,
2013-01-02 08:27:00,42.3,15.2,29.62,WNW,294,9.7,11.8,32,-99.99,,,0.00,110.7,rob ver 1B,2013-01-02 15:27:00,
2013-01-02 08:32:00,42.8,15.3,29.62,WNW,298,9.7,12.3,32,-99.99,,,0.00,121.1,rob ver 1A,2013-01-02 15:32:00,
2013-01-02 08:37:00,43.0,15.4,29.65,WNW,290,8.7,10.2,32,-99.99,,,0.00,134.2,rob ver 1A,2013-01-02 15:37:00,
2013-01-02 08:42:00,43.0,15.5,29.62,WNW,291,9.2,11.7,32,-99.99,,,0.00,148,rob ver 1A,2013-01-02 15:42:00,
2013-01-02 08:47:00,43.4,15.5,29.62,WNW,293,10.5,11.7,32,-99.99,,,0.00,162.2,rob ver 1A,2013-01-02 15:47:00,
2013-01-02 08:52:00,43.7,15.6,29.62,WNW,296,10.9,12.3,31,-99.99,,,0.00,176.6,rob ver 1A,2013-01-02 15:52:00,
2013-01-02 08:57:00,43.9,15.7,29.65,WNW,295,9.9,11.9,31,-99.99,,,0.00,191.1,rob ver 1A,2013-01-02 15:57:00,
2013-01-02 09:02:00,44.2,15.6,29.65,WNW,291,11.3,13.0,31,-99.99,,,0.00,205.9,rob ver 1A,2013-01-02 16:02:00,
2013-01-02 09:07:00,44.6,15.7,29.65,WNW,292,11.0,12.5,30,-99.99,,,0.00,221.2,rob ver 1A,2013-01-02 16:07:00,
2013-01-02 09:12:00,44.8,15.8,29.65,WNW,290,9.4,12.1,30,-99.99,,,0.00,236.1,rob ver 1A,2013-01-02 16:12:00,
2013-01-02 09:17:00,45.1,15.8,29.65,WNW,294,9.6,11.3,30,-99.99,,,0.00,248.1,rob ver 1A,2013-01-02 16:17:00,
2013-01-02 09:22:00,45.8,15.7,29.65,WNW,295,10.6,12.5,29,-99.99,,,0.00,268.2,rob ver 1B,2013-01-02 16:22:00,
2013-01-02 09:27:00,46.0,15.7,29.65,WNW,288,11.0,13.2,29,-99.99,,,0.00,276.2,rob ver 1A,2013-01-02 16:27:00,
2013-01-02 09:33:00,46.8,15.4,29.65,WNW,294,11.7,14.6,27,-99.99,,,0.00,293.3,rob ver 1A,2013-01-02 16:33:00,
2013-01-02 09:38:00,48.3,14.8,29.65,WNW,290,13.0,17.2,25,-99.99,,,0.00,310.4,rob ver 1A,2013-01-02 16:38:00,
2013-01-02 09:43:00,48.8,14.2,29.65,WNW,302,17.2,19.2,24,-99.99,,,0.00,324.2,rob ver 1A,2013-01-02 16:43:00,
2013-01-02 09:48:00,49.0,14.1,29.65,WNW,300,17.0,21.2,24,-99.99,,,0.00,338,rob ver 1A,2013-01-02 16:48:00,
2013-01-02 09:53:00,49.5,14.1,29.65,WNW,298,15.7,18.5,23,-99.99,,,0.00,351.2,rob ver 1A,2013-01-02 16:53:00,
2013-01-02 09:58:00,49.6,14.1,29.65,WNW,294,16.2,19.8,23,-99.99,,,0.00,364.5,rob ver 1A,2013-01-02 16:58:00,
2013-01-02 10:03:00,49.8,14.1,29.65,WNW,295,14.2,17.1,23,-99.99,,,0.00,374.2,rob ver 1A,2013-01-02 17:03:00,
2013-01-02 10:08:00,49.9,13.9,29.65,WNW,299,17.5,21.0,23,-99.99,,,0.00,390.6,rob ver 1B,2013-01-02 17:08:00,
2013-01-02 10:13:00,50.1,13.9,29.65,WNW,292,18.1,22.9,23,-99.99,,,0.00,402.7,rob ver 1A,2013-01-02 17:13:00,
2013-01-02 10:18:00,50.5,13.9,29.65,WNW,298,16.4,19.9,23,-99.99,,,0.00,414.8,rob ver 1A,2013-01-02 17:18:00,
2013-01-02 10:23:00,50.7,13.8,29.65,WNW,300,17.2,20.4,22,-99.99,,,0.00,423.4,rob ver 1A,2013-01-02 17:23:00,
2013-01-02 10:28:00,51.4,13.6,29.65,NW,306,15.9,18.8,21,-99.99,,,0.00,436.7,rob ver 1A,2013-01-02 17:28:00,
2013-01-02 10:33:00,51.5,13.3,29.62,WNW,292,20.0,22.5,21,-99.99,,,0.00,448.3,rob ver 1A,2013-01-02 17:33:00,
2013-01-02 10:38:00,51.9,13.1,29.65,NW,311,16.8,21.3,21,-99.99,,,0.00,459.7,rob ver 1A,2013-01-02 17:38:00,
2013-01-02 10:43:00,52.2,12.3,29.65,NW,316,17.9,22.2,19,-99.99,,,0.00,469.5,rob ver 1A,2013-01-02 17:43:00,
2013-01-02 10:48:00,52.5,12.4,29.65,NW,306,17.4,20.4,19,-99.99,,,0.00,479.2,rob ver 1A,2013-01-02 17:48:00,
2013-01-02 10:53:00,52.6,12.0,29.65,NW,309,17.9,22.3,19,-99.99,,,0.00,489.1,rob ver 1A,2013-01-02 17:53:00,
2013-01-02 10:58:00,53.0,12.0,29.62,WNW,297,17.2,20.5,18,-99.99,,,0.00,498.4,rob ver 1A,2013-01-02 17:58:00,
2013-01-02 11:03:00,52.6,12.1,29.62,WNW,297,18.6,21.6,19,-99.99,,,0.00,508.6,rob ver 1B,2013-01-02 18:03:00,
2013-01-02 11:08:00,52.9,12.4,29.62,WNW,296,16.7,20.0,19,-99.99,,,0.00,516.3,rob ver 1A,2013-01-02 18:08:00,
2013-01-02 11:13:00,53.0,12.1,29.62,WNW,295,20.3,23.7,19,-99.99,,,0.00,524.2,rob ver 1A,2013-01-02 18:13:00,
2013-01-02 11:18:00,53.2,12.1,29.62,WNW,287,17.4,21.9,18,-99.99,,,0.00,531.1,rob ver 1A,2013-01-02 18:18:00,
2013-01-02 11:23:00,53.6,11.8,29.62,WNW,303,17.6,21.5,18,-99.99,,,0.00,539.1,rob ver 1A,2013-01-02 18:23:00,
2013-01-02 11:28:00,54.1,12.1,29.62,NW,305,16.4,19.0,18,-99.99,,,0.00,546.4,rob ver 1A,2013-01-02 18:28:00,
2013-01-02 11:33:00,54.4,12.2,29.62,WNW,298,15.9,21.4,18,-99.99,,,0.00,553.3,rob ver 1A,2013-01-02 18:33:00,
2013-01-02 11:38:00,54.4,12.0,29.62,WNW,294,17.6,21.5,18,-99.99,,,0.00,557.7,rob ver 1A,2013-01-02 18:38:00,
2013-01-02 11:43:00,54.3,12.1,29.62,WNW,291,18.8,21.0,18,-99.99,,,0.00,563.8,rob ver 1A,2013-01-02 18:43:00,
2013-01-02 11:48:00,54.2,11.9,29.62,WNW,295,16.2,19.6,18,-99.99,,,0.00,569.2,rob ver 1A,2013-01-02 18:48:00,
2013-01-02 11:54:00,54.7,12.0,29.62,NW,305,17.6,22.1,18,-99.99,,,0.00,575.1,rob ver 1A,2013-01-02 18:54:00,
2013-01-02 11:59:00,55.2,12.4,29.62,WNW,295,15.7,20.3,17,-99.99,,,0.00,578.9,rob ver 1A,2013-01-02 18:59:00,
2013-01-02 12:04:00,55.5,12.2,29.59,WNW,285,18.4,23.7,17,-99.99,,,0.00,581.7,rob ver 1A,2013-01-02 19:04:00,
2013-01-02 12:09:00,55.9,12.3,29.59,NW,305,15.0,19.9,17,-99.99,,,0.00,585.9,rob ver 1A,2013-01-02 19:09:00,
2013-01-02 12:14:00,55.3,11.4,29.59,WNW,300,17.5,19.6,17,-99.99,,,0.00,587.9,rob ver 1A,2013-01-02 19:14:00,
2013-01-02 12:19:00,55.4,11.8,29.59,NW,307,18.3,22.6,17,-99.99,,,0.00,590.5,rob ver 1A,2013-01-02 19:19:00,
2013-01-02 12:24:00,55.9,12.2,29.59,WNW,295,16.9,21.5,17,-99.99,,,0.00,593.1,rob ver 1A,2013-01-02 19:24:00,
2013-01-02 12:29:00,55.7,11.4,29.59,NW,304,20.4,23.5,17,-99.99,,,0.00,595,rob ver 1A,2013-01-02 19:29:00,
2013-01-02 12:34:00,55.6,11.8,29.59,WNW,299,19.6,23.6,17,-99.99,,,0.00,597,rob ver 1A,2013-01-02 19:34:00,
2013-01-02 12:39:00,55.7,11.9,29.59,NW,310,18.6,23.6,17,-99.99,,,0.00,597.3,rob ver 1A,2013-01-02 19:39:00,
2013-01-02 12:44:00,56.2,12.0,29.59,WNW,296,18.9,25.1,17,-99.99,,,0.00,597.8,rob ver 1B,2013-01-02 19:44:00,
2013-01-02 12:49:00,56.3,12.1,29.56,WNW,301,20.0,23.2,16,-99.99,,,0.00,597.5,rob ver 1A,2013-01-02 19:49:00,
2013-01-02 12:54:00,56.4,11.7,29.56,WNW,299,17.2,20.3,16,-99.99,,,0.00,596.8,rob ver 1A,2013-01-02 19:54:00,
2013-01-02 12:59:00,57.3,12.2,29.56,NW,310,15.8,19.2,16,-99.99,,,0.00,595.8,rob ver 1A,2013-01-02 19:59:00,
2013-01-02 13:04:00,57.0,12.1,29.56,WNW,303,18.9,23.5,16,-99.99,,,0.00,594.9,rob ver 1A,2013-01-02 20:04:00,
2013-01-02 13:09:00,56.9,11.9,29.56,WNW,288,15.5,19.1,16,-99.99,,,0.00,592.9,rob ver 1A,2013-01-02 20:09:00,
2013-01-02 13:14:00,57.2,12.0,29.56,WNW,298,15.7,19.2,16,-99.99,,,0.00,590.6,rob ver 1A,2013-01-02 20:14:00,
2013-01-02 13:19:00,57.5,11.8,29.56,WNW,301,17.3,21.6,16,-99.99,,,0.00,587.8,rob ver 1A,2013-01-02 20:19:00,
2013-01-02 13:24:00,57.6,11.8,29.56,WNW,288,20.1,24.8,15,-99.99,,,0.00,585.3,rob ver 1A,2013-01-02 20:24:00,
2013-01-02 13:29:00,57.3,11.8,29.56,WNW,297,18.3,23.3,16,-99.99,,,0.00,581.7,rob ver 1A,2013-01-02 20:29:00,
2013-01-02 13:34:00,58.0,12.3,29.56,WNW,302,15.0,17.6,16,-99.99,,,0.00,577.6,rob ver 1A,2013-01-02 20:34:00,
2013-01-02 13:39:00,58.2,12.1,29.56,WNW,297,17.1,21.2,15,-99.99,,,0.00,573.8,rob ver 1A,2013-01-02 20:39:00,
2013-01-02 13:44:00,58.1,12.1,29.56,WNW,301,17.3,20.5,15,-99.99,,,0.00,569.1,rob ver 1A,2013-01-02 20:44:00,
2013-01-02 13:49:00,57.7,11.9,29.53,NW,304,18.1,22.8,16,-99.99,,,0.00,565,rob ver 1A,2013-01-02 20:49:00,
2013-01-02 13:54:00,58.0,11.9,29.53,WNW,296,17.9,21.7,15,-99.99,,,0.00,558.1,rob ver 1A,2013-01-02 20:54:00,
2013-01-02 13:59:00,58.0,12.1,29.53,NW,304,18.1,22.2,15,-99.99,,,0.00,551.8,rob ver 1A,2013-01-02 20:59:00,
2013-01-02 14:04:00,58.0,12.1,29.53,WNW,301,16.9,22.7,16,-99.99,,,0.00,545.1,rob ver 1A,2013-01-02 21:04:00,
2013-01-02 14:09:00,58.3,12.1,29.53,WNW,303,15.5,19.9,15,-99.99,,,0.00,538.4,rob ver 1A,2013-01-02 21:09:00,
2013-01-02 14:14:00,58.4,12.1,29.53,WNW,290,15.3,18.9,15,-99.99,,,0.00,531.3,rob ver 1A,2013-01-02 21:14:00,
2013-01-02 14:20:00,58.4,12.1,29.53,NW,307,18.8,21.9,15,-99.99,,,0.00,524.4,rob ver 1A,2013-01-02 21:20:00,
2013-01-02 14:25:00,58.4,12.2,29.53,NW,315,16.1,21.7,15,-99.99,,,0.00,515.5,rob ver 1A,2013-01-02 21:25:00,
2013-01-02 14:30:00,58.4,12.4,29.53,WNW,289,14.3,17.1,15,-99.99,,,0.00,504.8,rob ver 1A,2013-01-02 21:30:00,
2013-01-02 14:35:00,58.7,12.1,29.53,WNW,286,15.9,18.8,15,-99.99,,,0.00,496.8,rob ver 1A,2013-01-02 21:35:00,
2013-01-02 14:40:00,58.8,12.1,29.53,WNW,302,13.8,16.9,15,-99.99,,,0.00,487.1,rob ver 1A,2013-01-02 21:40:00,
2013-01-02 14:45:00,59.0,12.1,29.53,WNW,303,13.6,16.8,15,-99.99,,,0.00,477.7,rob ver 1A,2013-01-02 21:45:00,
2013-01-02 14:50:00,58.5,11.9,29.53,WNW,293,16.9,21.8,15,-99.99,,,0.00,466.9,rob ver 1A,2013-01-02 21:50:00,
2013-01-02 14:55:00,59.1,12.0,29.53,WNW,289,16.3,19.8,15,-99.99,,,0.00,456.9,rob ver 1A,2013-01-02 21:55:00,
2013-01-02 15:00:00,58.4,11.7,29.53,WNW,287,17.4,22.3,15,-99.99,,,0.00,446.2,rob ver 1A,2013-01-02 22:00:00,
2013-01-02 15:05:00,58.8,11.8,29.53,West,281,17.1,24.0,15,-99.99,,,0.00,435,rob ver 1A,2013-01-02 22:05:00,
2013-01-02 15:10:00,58.9,11.5,29.53,West,279,15.4,20.5,15,-99.99,,,0.00,423.5,rob ver 1A,2013-01-02 22:10:00,
2013-01-02 15:15:00,58.5,11.2,29.53,WNW,300,15.9,19.2,15,-99.99,,,0.00,412.4,rob ver 1A,2013-01-02 22:15:00,
2013-01-02 15:20:00,58.6,11.3,29.53,WNW,291,16.7,19.3,15,-99.99,,,0.00,399.9,rob ver 1A,2013-01-02 22:20:00,
2013-01-02 15:25:00,59.6,10.8,29.53,WNW,293,16.6,19.9,14,-99.99,,,0.00,390.8,rob ver 1A,2013-01-02 22:25:00,
2013-01-02 15:30:00,59.1,10.6,29.53,WNW,290,13.5,17.3,14,-99.99,,,0.00,374.9,rob ver 1A,2013-01-02 22:30:00,
2013-01-02 15:35:00,59.2,10.0,29.53,WNW,296,14.6,18.5,14,-99.99,,,0.00,362.4,rob ver 1A,2013-01-02 22:35:00,
2013-01-02 15:40:00,59.2,10.2,29.53,WNW,285,14.8,17.7,14,-99.99,,,0.00,349.1,rob ver 1A,2013-01-02 22:40:00,
2013-01-02 15:45:00,59.5,9.9,29.53,NW,304,16.4,19.8,13,-99.99,,,0.00,336,rob ver 1A,2013-01-02 22:45:00,
2013-01-02 15:50:00,59.6,10.0,29.53,WNW,300,15.3,19.1,13,-99.99,,,0.00,322.2,rob ver 1A,2013-01-02 22:50:00,
2013-01-02 15:55:00,59.4,10.0,29.53,NW,305,14.4,16.9,13,-99.99,,,0.00,308.6,rob ver 1A,2013-01-02 22:55:00,
2013-01-02 16:00:00,59.4,10.0,29.53,WNW,285,15.1,19.0,13,-99.99,,,0.00,294.5,rob ver 1A,2013-01-02 23:00:00,
2013-01-02 16:05:00,59.2,9.8,29.53,WNW,292,15.9,18.7,13,-99.99,,,0.00,283,rob ver 1A,2013-01-02 23:05:00,
2013-01-02 16:10:00,59.5,10.2,29.53,WNW,293,10.6,12.3,13,-99.99,,,0.00,265.8,rob ver 1A,2013-01-02 23:10:00,
2013-01-02 16:15:00,59.3,9.9,29.53,WNW,291,14.7,17.5,13,-99.99,,,0.00,248.9,rob ver 1B,2013-01-02 23:15:00,
2013-01-02 16:20:00,59.1,9.8,29.53,WNW,291,16.2,19.9,13,-99.99,,,0.00,237.4,rob ver 1A,2013-01-02 23:20:00,
2013-01-02 16:25:00,59.2,10.0,29.53,WNW,299,12.8,16.9,13,-99.99,,,0.00,222.6,rob ver 1A,2013-01-02 23:25:00,
2013-01-02 16:31:00,59.3,9.8,29.53,NW,304,15.9,18.0,13,-99.99,,,0.00,208.2,rob ver 1A,2013-01-02 23:31:00,
2013-01-02 16:36:00,59.0,9.6,29.53,NW,308,15.1,17.4,13,-99.99,,,0.00,192.9,rob ver 1A,2013-01-02 23:36:00,
2013-01-02 16:41:00,58.7,9.4,29.53,WNW,292,15.6,18.5,13,-99.99,,,0.00,175.3,rob ver 1A,2013-01-02 23:41:00,
2013-01-02 16:46:00,58.7,9.4,29.53,WNW,297,13.6,16.5,13,-99.99,,,0.00,160.6,rob ver 1A,2013-01-02 23:46:00,
2013-01-02 16:51:00,58.5,9.1,29.53,WNW,298,16.8,20.0,13,-99.99,,,0.00,146.4,rob ver 1A,2013-01-02 23:51:00,
2013-01-02 16:56:00,58.5,9.1,29.53,NW,304,14.1,17.5,13,-99.99,,,0.00,132,rob ver 1A,2013-01-02 23:56:00,
2013-01-02 17:01:00,58.5,8.9,29.53,WNW,300,14.2,16.8,13,-99.99,,,0.00,118.2,rob ver 1A,2013-01-03 00:01:00,
2013-01-02 17:06:00,58.2,8.5,29.53,NW,305,16.9,20.2,13,-99.99,,,0.00,104.4,rob ver 1A,2013-01-03 00:06:00,
2013-01-02 17:11:00,58.2,8.6,29.53,WNW,303,15.8,19.2,13,-99.99,,,0.00,90.6,rob ver 1A,2013-01-03 00:11:00,
2013-01-02 17:16:00,58.0,8.5,29.53,WNW,303,13.8,16.3,13,-99.99,,,0.00,77.5,rob ver 1A,2013-01-03 00:16:00,
2013-01-02 17:21:00,57.8,8.2,29.53,WNW,303,15.9,18.6,13,-99.99,,,0.00,65.01,rob ver 1A,2013-01-03 00:21:00,
2013-01-02 17:26:00,57.7,8.0,29.53,WNW,303,17.4,20.6,13,-99.99,,,0.00,51.88,rob ver 1A,2013-01-03 00:26:00,
2013-01-02 17:31:00,57.4,7.9,29.53,WNW,302,14.0,17.1,13,-99.99,,,0.00,39.4,rob ver 1A,2013-01-03 00:31:00,
2013-01-02 17:37:00,57.1,7.7,29.53,WNW,302,13.3,15.5,13,-99.99,,,0.00,27.58,rob ver 1A,2013-01-03 00:37:00,
2013-01-02 17:42:00,56.7,7.6,29.53,NW,306,11.9,14.0,13,-99.99,,,0.00,6.567,rob ver 1A,2013-01-03 00:42:00,
2013-01-02 17:47:00,56.5,7.5,29.53,WNW,299,12.4,15.4,13,-99.99,,,0.00,3.94,rob ver 1A,2013-01-03 00:47:00,
2013-01-02 17:52:00,56.3,7.5,29.53,WNW,303,12.6,15.3,13,-99.99,,,0.00,2.627,rob ver 1A,2013-01-03 00:52:00,
2013-01-02 17:57:00,55.8,7.5,29.53,WNW,299,10.2,12.2,14,-99.99,,,0.00,1.478,rob ver 1A,2013-01-03 00:57:00,
2013-01-02 18:02:00,55.3,8.1,29.53,WNW,297,8.2,9.7,14,-99.99,,,0.00,.328,rob ver 1A,2013-01-03 01:02:00,
2013-01-02 18:07:00,55.0,8.5,29.53,WNW,294,8.8,9.7,15,-99.99,,,0.00,.328,rob ver 1A,2013-01-03 01:07:00,
2013-01-02 18:12:00,54.5,8.9,29.53,WNW,298,8.0,9.1,15,-99.99,,,0.00,0,rob ver 1A,2013-01-03 01:12:00,
2013-01-02 18:17:00,54.1,9.2,29.53,WNW,299,7.1,9.0,16,-99.99,,,0.00,0,rob ver 1A,2013-01-03 01:17:00,
2013-01-02 18:22:00,53.9,9.3,29.53,WNW,301,8.3,9.8,16,-99.99,,,0.00,0,rob ver 1A,2013-01-03 01:22:00,
2013-01-02 18:27:00,53.7,9.1,29.53,NW,308,8.1,9.6,16,-99.99,,,0.00,0,rob ver 1A,2013-01-03 01:27:00,
2013-01-02 18:32:00,53.7,8.8,29.53,NW,310,8.6,10.3,16,-99.99,,,0.00,0,rob ver 1A,2013-01-03 01:32:00,
2013-01-02 18:38:00,53.3,8.8,29.53,NW,314,7.6,8.8,16,-99.99,,,0.00,0,rob ver 1A,2013-01-03 01:38:00,
2013-01-02 18:43:00,52.9,8.6,29.53,NW,309,7.3,8.3,16,-99.99,,,0.00,0,rob ver 1A,2013-01-03 01:43:00,
2013-01-02 18:48:00,52.7,8.5,29.53,NW,311,7.8,9.2,16,-99.99,,,0.00,0,rob ver 1A,2013-01-03 01:48:00,
2013-01-02 18:53:00,52.6,8.3,29.53,NW,312,8.1,9.0,16,-99.99,,,0.00,0,rob ver 1A,2013-01-03 01:53:00,
2013-01-02 18:58:00,52.3,8.3,29.53,NW,320,6.6,9.7,16,-99.99,,,0.00,0,rob ver 1A,2013-01-03 01:58:00,
2013-01-02 19:03:00,52.5,8.3,29.53,NW,322,7.6,9.1,16,-99.99,,,0.00,0,rob ver 1A,2013-01-03 02:03:00,
2013-01-02 19:08:00,52.4,8.3,29.53,NW,325,7.3,8.7,16,-99.99,,,0.00,0,rob ver 1A,2013-01-03 02:08:00,
2013-01-02 19:13:00,52.5,8.3,29.53,NW,324,6.1,6.9,16,-99.99,,,0.00,0,rob ver 1A,2013-01-03 02:13:00,
2013-01-02 19:18:00,52.0,8.6,29.53,NW,325,5.6,6.6,17,-99.99,,,0.00,0,rob ver 1B,2013-01-03 02:18:00,
2013-01-02 19:23:00,51.6,8.9,29.53,NW,322,4.0,4.9,17,-99.99,,,0.00,0,rob ver 1A,2013-01-03 02:23:00,
2013-01-02 19:28:00,51.2,9.0,29.53,NW,321,4.1,4.8,17,-99.99,,,0.00,0,rob ver 1A,2013-01-03 02:28:00,
2013-01-02 19:33:00,51.2,9.2,29.53,NW,320,3.9,4.5,18,-99.99,,,0.00,0,rob ver 1A,2013-01-03 02:33:00,
2013-01-02 19:38:00,51.0,9.1,29.53,NW,315,3.1,3.6,18,-99.99,,,0.00,0,rob ver 1A,2013-01-03 02:38:00,
2013-01-02 19:43:00,50.9,9.1,29.53,NW,318,2.9,3.3,18,-99.99,,,0.00,0,rob ver 1A,2013-01-03 02:43:00,
2013-01-02 19:48:00,51.0,9.1,29.53,NW,319,3.5,3.9,18,-99.99,,,0.00,0,rob ver 1A,2013-01-03 02:48:00,
2013-01-02 19:53:00,51.0,9.1,29.53,WNW,302,3.8,4.0,18,-99.99,,,0.00,0,rob ver 1A,2013-01-03 02:53:00,
2013-01-02 19:58:00,50.8,9.2,29.53,NW,313,4.4,4.6,18,-99.99,,,0.00,0,rob ver 1A,2013-01-03 02:58:00,
2013-01-02 20:03:00,50.4,9.3,29.53,NW,321,4.6,5.0,18,-99.99,,,0.00,0,rob ver 1A,2013-01-03 03:03:00,
2013-01-02 20:08:00,50.6,9.3,29.53,NW,311,4.7,5.1,18,-99.99,,,0.00,0,rob ver 1A,2013-01-03 03:08:00,
2013-01-02 20:14:00,49.1,9.4,29.53,West,272,3.8,4.3,19,-99.99,,,0.00,0,rob ver 1A,2013-01-03 03:14:00,
2013-01-02 20:19:00,47.9,9.4,29.53,WNW,289,4.7,4.8,20,-99.99,,,0.00,0,rob ver 1A,2013-01-03 03:19:00,
2013-01-02 20:24:00,48.2,9.5,29.53,WNW,292,4.4,4.6,20,-99.99,,,0.00,0,rob ver 1A,2013-01-03 03:24:00,
2013-01-02 20:29:00,47.5,9.6,29.53,WNW,287,4.0,4.3,21,-99.99,,,0.00,0,rob ver 1A,2013-01-03 03:29:00,
2013-01-02 20:35:00,47.7,9.6,29.53,NW,307,4.4,5.0,20,-99.99,,,0.00,0,rob ver 1B,2013-01-03 03:35:00,
2013-01-02 20:40:00,47.7,9.7,29.53,WNW,303,6.0,6.4,21,-99.99,,,0.00,0,rob ver 1B,2013-01-03 03:40:00,
2013-01-02 20:45:00,47.6,9.7,29.53,NW,304,5.9,6.6,21,-99.99,,,0.00,0,rob ver 1B,2013-01-03 03:45:00,
2013-01-02 20:51:00,47.4,9.8,29.53,WNW,283,5.6,6.2,21,-99.99,,,0.00,0,rob ver 1A,2013-01-03 03:51:00,
2013-01-02 20:56:00,45.6,10.0,29.53,West,276,6.6,7.5,23,-99.99,,,0.00,0,rob ver 1A,2013-01-03 03:56:00,
2013-01-02 21:01:00,46.1,9.9,29.53,WNW,287,8.7,11.4,22,-99.99,,,0.00,0,rob ver 1A,2013-01-03 04:01:00,
2013-01-02 21:06:00,46.8,9.8,29.53,WNW,283,7.9,9.3,21,-99.99,,,0.00,0,rob ver 1A,2013-01-03 04:06:00,
2013-01-02 21:11:00,47.7,9.8,29.53,WNW,286,9.5,11.0,21,-99.99,,,0.00,0,rob ver 1A,2013-01-03 04:11:00,
2013-01-02 21:16:00,47.9,9.8,29.53,WNW,282,8.7,11.1,20,-99.99,,,0.00,0,rob ver 1A,2013-01-03 04:16:00,
2013-01-02 21:21:00,47.4,9.9,29.53,West,276,8.2,9.6,21,-99.99,,,0.00,0,rob ver 1A,2013-01-03 04:21:00,
2013-01-02 21:26:00,46.9,10.1,29.53,West,272,8.0,9.6,22,-99.99,,,0.00,0,rob ver 1A,2013-01-03 04:26:00,
2013-01-02 21:31:00,46.2,10.3,29.53,West,268,7.8,8.9,22,-99.99,,,0.00,0,rob ver 1A,2013-01-03 04:31:00,
2013-01-02 21:36:00,45.8,10.5,29.53,West,276,7.4,8.6,23,-99.99,,,0.00,0,rob ver 1A,2013-01-03 04:36:00,
2013-01-02 21:41:00,45.8,10.8,29.56,WNW,282,7.9,8.6,23,-99.99,,,0.00,0,rob ver 1A,2013-01-03 04:41:00,
2013-01-02 21:46:00,46.3,10.9,29.56,West,281,8.2,9.3,23,-99.99,,,0.00,0,rob ver 1A,2013-01-03 04:46:00,
2013-01-02 21:51:00,46.7,11.2,29.56,WNW,283,8.4,10.3,23,-99.99,,,0.00,0,rob ver 1A,2013-01-03 04:51:00,
2013-01-02 21:56:00,47.3,11.5,29.56,WNW,283,9.3,10.6,23,-99.99,,,0.00,0,rob ver 1A,2013-01-03 04:56:00,
2013-01-02 22:00:00,47.3,11.6,29.56,WNW,286,10.7,12.4,23,-99.99,,,0.00,0,rob ver 1B,2013-01-03 05:00:00,
2013-01-02 22:01:00,47.5,11.7,29.56,WNW,289,10.2,11.6,23,-99.99,,,0.00,0,rob ver 1B,2013-01-03 05:01:00,
2013-01-02 22:02:00,47.5,11.7,29.56,WNW,289,10.2,11.6,23,-99.99,,,0.00,0,rob ver 1A,2013-01-03 05:02:00,
2013-01-02 22:07:00,47.8,11.9,29.56,WNW,292,9.7,11.5,23,-99.99,,,0.00,0,rob ver 1A,2013-01-03 05:07:00,
2013-01-02 22:12:00,48.1,12.2,29.56,WNW,294,10.9,12.7,23,-99.99,,,0.00,0,rob ver 1A,2013-01-03 05:12:00,
2013-01-02 22:17:00,48.1,12.4,29.56,WNW,294,10.8,12.9,23,-99.99,,,0.00,0,rob ver 1A,2013-01-03 05:17:00,
2013-01-02 22:22:00,48.2,12.5,29.56,WNW,293,11.0,13.3,23,-99.99,,,0.00,0,rob ver 1A,2013-01-03 05:22:00,
2013-01-02 22:27:00,48.2,12.7,29.56,WNW,288,10.9,12.7,23,-99.99,,,0.00,0,rob ver 1A,2013-01-03 05:27:00,
2013-01-02 22:32:00,48.0,12.8,29.56,WNW,289,10.8,13.2,23,-99.99,,,0.00,0,rob ver 1A,2013-01-03 05:32:00,
2013-01-02 22:37:00,48.4,12.9,29.56,WNW,295,12.5,14.6,23,-99.99,,,0.00,0,rob ver 1A,2013-01-03 05:37:00,
2013-01-02 22:42:00,48.1,12.9,29.56,WNW,286,11.2,12.8,23,-99.99,,,0.00,0,rob ver 1A,2013-01-03 05:42:00,
2013-01-02 22:47:00,47.0,13.0,29.56,WNW,291,9.0,10.6,24,-99.99,,,0.00,0,rob ver 1A,2013-01-03 05:47:00,
2013-01-02 22:52:00,46.4,12.9,29.56,WNW,284,8.0,9.1,25,-99.99,,,0.00,0,rob ver 1A,2013-01-03 05:52:00,
2013-01-02 22:57:00,45.9,13.1,29.56,WNW,292,8.8,10.6,26,-99.99,,,0.00,0,rob ver 1A,2013-01-03 05:57:00,
2013-01-02 23:02:00,46.7,13.1,29.56,WNW,287,9.3,11.3,25,-99.99,,,0.00,0,rob ver 1A,2013-01-03 06:02:00,
2013-01-02 23:07:00,47.4,13.2,29.53,WNW,295,11.1,13.5,24,-99.99,,,0.00,0,rob ver 1A,2013-01-03 06:07:00,
2013-01-02 23:12:00,47.9,13.2,29.53,WNW,301,12.9,15.1,24,-99.99,,,0.00,0,rob ver 1A,2013-01-03 06:12:00,
2013-01-02 23:17:00,48.0,13.2,29.53,WNW,300,11.6,13.8,24,-99.99,,,0.00,0,rob ver 1A,2013-01-03 06:17:00,
2013-01-02 23:22:00,48.2,13.2,29.53,WNW,297,12.4,14.1,24,-99.99,,,0.00,0,rob ver 1A,2013-01-03 06:22:00,
2013-01-02 23:27:00,47.9,13.1,29.56,WNW,289,10.1,11.5,24,-99.99,,,0.00,0,rob ver 1A,2013-01-03 06:27:00,
2013-01-02 23:32:00,47.7,13.1,29.56,WNW,286,10.4,14.0,24,-99.99,,,0.00,0,rob ver 1A,2013-01-03 06:32:00,
2013-01-02 23:37:00,47.7,13.1,29.56,WNW,291,10.5,12.1,24,-99.99,,,0.00,0,rob ver 1A,2013-01-03 06:37:00,
2013-01-02 23:42:00,48.2,13.1,29.56,WNW,295,10.3,13.0,24,-99.99,,,0.00,0,rob ver 1A,2013-01-03 06:42:00,
2013-01-02 23:47:00,48.0,13.1,29.53,WNW,289,11.2,13.6,24,-99.99,,,0.00,0,rob ver 1A,2013-01-03 06:47:00,
2013-01-02 23:52:00,47.7,13.1,29.56,WNW,293,11.6,14.2,24,-99.99,,,0.00,0,rob ver 1B,2013-01-03 06:52:00,
2013-01-02 23:58:00,47.9,13.2,29.56,WNW,294,12.5,14.5,24,-99.99,,,0.00,0,rob ver 1A,2013-01-03 06:58:00,